Station: Macquarie Island  

  Atmospheric Gas Attenuation - ITU Rec 676-11   ----------------- dB/100km -----------------
Date Time Temp RH % AH g/m3 Dew Point Wind Direction Speed kph Gust kph Barometer mB Rainfall Since 9am 24GHz 47GHz 76GHz 122GHz 134GHz 241GHz
04/09 13:50 4.5 78 5.13 1 39 44 974.9 0.2 12.5 21.4 28.5 74.9 60.2 204.0
04/09 13:40 4.5 79 5.2 1.2 35 41 974.8 0.2 12.6 21.5 28.8 75.6 61.1 207.1
04/09 13:30 4.7 80 5.33 1.6 35 43 975 0.2 12.9 21.7 29.2 76.7 62.6 212.4
04/09 13:20 4.8 81 5.44 1.8 35 39 975.1 0.2 13.2 21.9 29.6 77.8 63.9 217.0
04/09 13:10 5.1 80 5.48 1.9 35 41 975 0.2 13.2 21.8 29.7 77.9 64.2 218.0
04/09 13:00 4.9 81 5.47 1.9 33 41 975.1 0.2 13.2 21.9 29.7 78.0 64.2 218.1
04/09 12:50 4.8 81 5.44 1.8 35 41 975 0.2 13.2 21.9 29.6 77.8 63.9 217.0
04/09 12:40 4.9 82 5.54 2.1 35 43 975 0.2 13.4 22.0 30.0 78.7 65.1 221.2
04/09 12:30 5.4 82 5.73 2.6 35 46 975 0.2 13.8 22.2 30.5 80.2 67.1 228.4
04/09 12:20 5 81 5.51 2 28 32 975 0.2 13.3 21.9 29.8 78.3 64.7 219.6
04/09 12:10 5.5 80 5.62 2.3 30 35 975.2 0.2 13.5 22.0 30.1 78.9 65.7 223.2
04/09 12:00 5.4 81 5.66 2.4 32 37 975.2 0.2 13.6 22.1 30.3 79.5 66.3 225.3
04/09 11:50 5 82 5.58 2.2 33 39 975.3 0.2 13.5 22.0 30.1 79.0 65.6 222.8
04/09 11:40 4.8 82 5.5 2 33 39 975.3 0.2 13.3 22.0 29.9 78.4 64.7 219.8
04/09 11:30 4.6 85 5.63 2.3 35 46 975.4 0.2 13.6 22.2 30.5 80.0 66.6 226.2
04/09 11:20 4.2 84 5.42 1.7 39 52 975.4 0.2 13.1 22.0 29.8 78.2 64.2 217.9
04/09 11:10 4.4 85 5.55 2.1 33 39 975.5 0.2 13.4 22.1 30.2 79.4 65.7 223.2
04/09 11:00 4.1 86 5.51 2 32 54 975.6 0.2 13.3 22.2 30.2 79.3 65.5 222.3
04/09 10:50 5 87 5.92 3 24 32 975.4 0.2 14.2 22.6 31.4 82.6 70.0 238.3
04/09 10:40 4.8 87 5.84 2.8 26 30 975.5 0.2 14.0 22.5 31.2 82.0 69.1 235.2
04/09 10:30 4.9 87 5.88 2.9 26 30 975.5 0.2 14.1 22.5 31.3 82.3 69.6 236.8
04/09 10:20 4.7 88 5.87 2.9 28 32 975.6 0.2 14.1 22.6 31.4 82.4 69.6 236.9
04/09 10:10 4.3 86 5.58 2.2 30 35 975.7 0.2 13.5 22.2 30.4 79.8 66.2 224.9
04/09 10:00 4.3 86 5.58 2.2 33 39 975.6 0.2 13.5 22.2 30.4 79.8 66.2 224.9
04/09 09:50 4.3 87 5.65 2.3 32 37 975.6 0.2 13.6 22.3 30.7 80.5 67.1 228.1
04/09 09:40 4.3 87 5.65 2.3 30 33 975.5 0.2 13.6 22.3 30.7 80.5 67.1 228.0
04/09 09:30 4.1 89 5.7 2.5 28 32 975.5 0.2 13.7 22.5 30.9 81.2 67.9 230.9
04/09 09:20 3.5 89 5.48 1.9 33 44 975.5 0.2 13.3 22.3 30.3 79.5 65.6 222.6
04/09 09:10 3.7 84 5.24 1.3 32 50 975.5 0.2 12.8 21.8 29.3 76.8 62.3 211.1
04/09 09:00 4.9 85 5.74 2.6 26 30 975.3 0 13.8 22.3 30.8 80.8 67.7 230.3
04/09 08:50 4.4 86 5.62 2.3 26 32 975.4 1.8 13.6 22.2 30.5 80.1 66.6 226.4
04/09 08:40 3.7 82 5.11 0.9 35 46 975.5 1.8 12.5 21.6 28.8 75.5 60.6 205.3
04/09 08:30 4.5 85 5.59 2.2 32 35 975.3 1.8 13.5 22.2 30.3 79.7 66.1 224.7
04/09 08:20 4.4 87 5.69 2.4 30 35 975.3 1.8 13.7 22.4 30.8 80.8 67.5 229.5
04/09 08:10 4.2 89 5.74 2.6 28 30 975.3 1.8 13.8 22.5 31.0 81.5 68.3 232.4
04/09 08:00 4 88 5.6 2.2 26 30 975.4 1.8 13.5 22.3 30.6 80.3 66.7 226.6
04/09 07:50 3.3 88 5.34 1.5 26 35 975.3 1.8 13.0 22.1 29.8 78.2 63.9 216.7
04/09 07:40 3.1 88 5.27 1.3 32 44 975.3 1.8 12.8 22.0 29.6 77.7 63.1 214.1
04/09 07:30 3.5 87 5.35 1.5 30 35 975.2 1.8 13.0 22.0 29.8 78.1 63.9 216.6
04/09 07:20 3.9 84 5.31 1.4 33 43 975.3 1.8 12.9 21.9 29.5 77.3 63.0 213.7
04/09 07:10 4.3 85 5.52 2 32 37 974.9 1.8 13.4 22.1 30.1 79.1 65.4 222.0
04/09 07:00 4.2 86 5.55 2.1 30 33 974.9 1.8 13.4 22.2 30.3 79.5 65.8 223.7
04/09 06:50 4 86 5.47 1.9 30 33 974.9 1.8 13.3 22.1 30.0 78.9 65.0 220.6
04/09 06:40 3.9 88 5.56 2.1 24 28 974.9 1.8 13.5 22.3 30.4 79.9 66.2 225.0
04/09 06:30 3.9 88 5.56 2.1 24 32 975 1.8 13.5 22.3 30.4 79.9 66.2 225.0
04/09 06:20 3.9 88 5.56 2.1 26 32 974.9 1.8 13.5 22.3 30.4 79.9 66.2 225.0
04/09 06:10 3.7 87 5.43 1.7 30 35 974.9 1.8 13.2 22.1 30.0 78.8 64.7 219.6
04/09 06:00 3.6 87 5.39 1.6 26 32 974.7 1.8 13.1 22.1 29.9 78.4 64.3 218.0
04/09 05:50 3.5 88 5.42 1.7 28 33 974.7 1.8 13.2 22.1 30.0 78.8 64.7 219.7
04/09 05:40 3.2 89 5.37 1.6 26 32 974.7 1.8 13.1 22.1 29.9 78.6 64.3 218.2
04/09 05:30 3.1 89 5.33 1.5 30 35 974.8 1.8 13.0 22.1 29.8 78.3 63.9 216.7
04/09 05:20 3.1 88 5.27 1.3 35 46 974.7 1.8 12.8 22.0 29.6 77.7 63.1 213.9
04/09 05:10 3.6 85 5.27 1.3 35 43 974.5 1.8 12.8 21.9 29.4 77.1 62.7 212.5
04/09 05:00 4 85 5.41 1.7 30 35 974.4 1.8 13.1 22.0 29.8 78.2 64.2 217.8
04/09 04:50 4 86 5.47 1.9 28 35 974.3 1.8 13.3 22.1 30.0 78.8 64.9 220.5
04/09 04:40 4 87 5.54 2 24 30 974.4 1.8 13.4 22.2 30.3 79.6 65.9 223.7
04/09 04:30 3.9 87 5.5 1.9 26 32 974.4 1.8 13.3 22.1 30.2 79.2 65.4 222.1
04/09 04:20 3.8 87 5.46 1.8 26 32 974.3 1.8 13.2 22.1 30.0 78.9 65.0 220.6
04/09 04:10 3.7 87 5.43 1.7 28 33 974.3 1.8 13.2 22.1 30.0 78.7 64.7 219.5
04/09 04:00 3.7 88 5.49 1.9 26 30 974.3 1.8 13.3 22.2 30.2 79.3 65.5 222.2
04/09 03:50 3.6 89 5.51 2 26 30 974.3 1.8 13.4 22.2 30.3 79.6 65.8 223.4
04/09 03:40 3.7 90 5.61 2.2 24 30 974.4 1.8 13.6 22.4 30.7 80.6 67.0 227.7
04/09 03:30 3.8 90 5.65 2.3 26 30 974.3 1.8 13.7 22.4 30.8 80.9 67.5 229.3
04/09 03:20 3.7 90 5.61 2.2 24 26 974.2 1.8 13.6 22.4 30.7 80.6 67.0 227.7
04/09 03:10 3.6 90 5.58 2.1 28 30 974.2 1.8 13.5 22.3 30.6 80.4 66.7 226.6
04/09 03:00 3.6 90 5.58 2.1 28 32 974.2 1.8 13.5 22.3 30.6 80.4 66.7 226.6
04/09 02:50 3.5 91 5.6 2.2 28 30 974.2 1.8 13.6 22.4 30.7 80.7 67.1 227.8
04/09 02:40 3.4 91 5.56 2.1 24 28 974.1 1.8 13.5 22.4 30.6 80.4 66.6 226.2
04/09 02:30 3.2 92 5.55 2 26 30 974.1 1.8 13.5 22.4 30.6 80.5 66.7 226.4
04/09 02:20 3.2 92 5.55 2 26 28 974.2 1.8 13.5 22.4 30.6 80.5 66.7 226.4
04/09 02:10 3.2 92 5.55 2 26 30 974.2 1.8 13.5 22.4 30.6 80.5 66.7 226.4
04/09 02:00 3 91 5.42 1.7 26 30 974.1 1.8 13.2 22.2 30.2 79.3 65.1 221.0
04/09 01:50 2.9 92 5.44 1.7 26 28 974.2 1.8 13.2 22.3 30.3 79.6 65.5 222.2
04/09 01:40 2.9 92 5.44 1.7 26 30 974.3 1.8 13.2 22.3 30.3 79.6 65.5 222.2
04/09 01:30 2.9 91 5.38 1.6 32 35 974.5 1.8 13.1 22.2 30.1 79.0 64.7 219.5
04/09 01:20 3.1 90 5.39 1.6 39 56 974.5 1.8 13.1 22.2 30.0 78.9 64.7 219.4
04/09 01:10 4.4 88 5.75 2.6 26 32 974.2 1.2 13.8 22.4 31.0 81.3 68.2 232.0
04/09 01:00 4.3 88 5.71 2.5 26 32 974.2 1.2 13.8 22.4 30.8 81.0 67.8 230.5
04/09 00:50 4.3 88 5.71 2.5 30 35 974.1 1.2 13.8 22.4 30.8 81.0 67.8 230.5
04/09 00:40 4.2 88 5.67 2.4 32 35 974.2 1.2 13.7 22.3 30.7 80.7 67.4 229.0
04/09 00:30 4.2 89 5.74 2.6 30 35 974.1 1.2 13.8 22.4 31.0 81.4 68.3 232.2
04/09 00:20 4.2 89 5.74 2.6 30 35 974.1 1.2 13.8 22.4 31.0 81.4 68.3 232.2
04/09 00:10 4.2 89 5.74 2.6 30 35 973.9 1.2 13.8 22.4 31.0 81.4 68.3 232.1
04/09 00:00 4.2 89 5.74 2.6 28 33 973.8 1.2 13.8 22.4 31.0 81.4 68.2 232.1
03/09 23:50 4.2 89 5.74 2.6 28 33 973.7 1.2 13.8 22.4 31.0 81.4 68.2 232.1
03/09 23:40 4.3 89 5.78 2.7 28 32 973.7 1.2 13.9 22.5 31.1 81.7 68.7 233.6
03/09 23:30 4.4 89 5.82 2.8 26 32 973.7 1.2 14.0 22.5 31.2 82.0 69.1 235.1
03/09 23:20 4.4 89 5.82 2.8 26 32 973.8 1.2 14.0 22.5 31.2 82.0 69.1 235.2
03/09 23:10 4.5 89 5.85 2.8 24 30 973.8 1.2 14.1 22.5 31.3 82.3 69.4 236.2
03/09 23:00 4.5 89 5.85 2.8 28 35 973.8 1.2 14.1 22.5 31.3 82.3 69.4 236.2
03/09 22:50 4.6 89 5.89 2.9 28 35 974 1.2 14.1 22.6 31.4 82.6 69.9 237.8
03/09 22:40 4.6 89 5.89 2.9 30 37 974 1.2 14.1 22.6 31.4 82.6 69.9 237.8
03/09 22:30 4.5 90 5.92 3 32 37 973.9 1.2 14.2 22.6 31.6 83.0 70.3 239.5
03/09 22:20 4.5 92 6.05 3.3 26 32 973.8 1.2 14.5 22.9 32.1 84.4 72.0 245.4
03/09 22:10 4.4 92 6.01 3.2 30 33 973.8 1.2 14.4 22.8 32.0 84.1 71.6 243.9
03/09 22:00 4.5 93 6.12 3.5 30 32 973.9 1.2 14.6 23.0 32.4 85.1 73.0 248.7
03/09 21:50 4.5 93 6.12 3.5 30 32 973.8 1.2 14.6 23.0 32.4 85.1 73.0 248.7
03/09 21:40 4.5 93 6.12 3.5 30 32 973.8 1.2 14.6 23.0 32.4 85.1 73.0 248.7
03/09 21:30 4.5 93 6.12 3.5 30 33 973.9 1.2 14.6 23.0 32.4 85.1 73.0 248.7
03/09 21:20 4.5 93 6.12 3.5 32 35 973.9 1.2 14.6 23.0 32.4 85.1 73.0 248.7

Last Refresh: 04-Sep-2026 13:24:40

Bureau of Meteorology